Harrisburg, PA

9:33 AM EST on November 21, 2017 (GMT -0500)
Capital City

Weather History for KCXY - July, 2013

Change the Weather History Date:

Friday, July 19, 2013

  Actual Average Record
Temperature  
Mean Temperature 86 °F -  
Max Temperature 97 °F 82 °F 101 °F (1991)
Min Temperature 75 °F 63 °F 54 °F (1939)
Cooling Degree Days 20    
Growing Degree Days 36 (Base 50)    
Moisture  
Dew Point 71 °F    
Average Humidity 71    
Maximum Humidity 91    
Minimum Humidity 43    
Precipitation  
Precipitation 0.01 in - - ()
Sea Level Pressure  
Sea Level Pressure 29.92 in    
Wind  
Wind Speed 6 mph (WSW)    
Max Wind Speed 13 mph    
Max Gust Speed 22 mph    
Visibility 9 miles    
Events Rain , Thunderstorm    
Averages and records for this station are not official NWS values.
T = Trace of Precipitation, MM = Missing Value Source: NWS Daily Summary

Daily Weather History Graph

Daily Weather History Graph

Search for Another Location

Airport or City:

Trip Planner

Search our weather history database for the weather conditions in past years. The results will help you decide how hot, cold, wet, or windy it might be!

Date:

Astronomy

Jul. 19, 2013 Rise Set
Actual Time 5:53 AM EDT 8:33 PM EDT
Civil Twilight 5:22 AM EDT 9:04 PM EDT
Nautical Twilight 4:42 AM EDT 9:44 PM EDT
Astronomical Twilight 3:57 AM EDT 10:28 PM EDT
Moon 5:33 PM EDT (7/19) 2:33 AM EDT (7/19)
Length of Visible Light 15h 42m
Length of Day
14h 39m
Waxing Gibbous, 86% of the Moon is Illuminated
Jul 19
Waxing Gibbous
Jul 22
Full
Jul 29
Last Quarter
Aug 6
New
Aug 14
First Quarter

Hourly Weather History & Observations

Time (EDT) Temp. Heat Index Dew Point Humidity Pressure Visibility Wind Dir Wind Speed Gust Speed Precip Events Conditions
12:56 AM 79.0 °F - 73.0 °F 82% 30.00 in 10.0 mi SSW 3.5 mph - N/A   Clear
1:56 AM 79.0 °F - 72.0 °F 79% 29.99 in 10.0 mi Calm Calm - N/A   Clear
2:56 AM 77.0 °F - 73.0 °F 88% 30.00 in 9.0 mi WSW 3.5 mph - N/A   Clear
3:56 AM 75.9 °F - 72.0 °F 87% 29.99 in 8.0 mi SW 3.5 mph - N/A   Clear
4:56 AM 75.9 °F - 73.0 °F 91% 29.98 in 8.0 mi WSW 4.6 mph - N/A   Partly Cloudy
5:56 AM 75.9 °F - 72.0 °F 87% 29.99 in 7.0 mi Calm Calm - N/A   Clear
6:56 AM 78.1 °F - 73.0 °F 84% 29.98 in 6.0 mi West 3.5 mph - N/A   Haze
7:56 AM 81.0 °F 86.2 °F 73.9 °F 79% 29.98 in 6.0 mi WSW 4.6 mph - N/A   Haze
8:56 AM 84.0 °F 91.2 °F 73.9 °F 72% 29.99 in 6.0 mi WSW 5.8 mph - N/A   Haze
9:56 AM 87.1 °F 95.4 °F 73.9 °F 65% 29.98 in 8.0 mi WSW 6.9 mph - N/A   Clear
10:56 AM 91.0 °F 101.6 °F 75.0 °F 59% 29.97 in 9.0 mi WSW 8.1 mph - N/A   Partly Cloudy
11:56 AM 91.9 °F 100.7 °F 73.0 °F 54% 29.96 in 9.0 mi WSW 10.4 mph - N/A   Scattered Clouds
12:56 PM 93.9 °F 100.8 °F 71.1 °F 47% 29.94 in 10.0 mi West 10.4 mph 17.3 mph N/A   Clear
1:56 PM 95.0 °F 102.5 °F 71.1 °F 46% 29.92 in 10.0 mi WSW 12.7 mph - N/A   Partly Cloudy
2:56 PM 96.1 °F 102.9 °F 70.0 °F 43% 29.88 in 10.0 mi SW 11.5 mph 18.4 mph N/A   Scattered Clouds
3:56 PM 96.1 °F 104.9 °F 72.0 °F 46% 29.86 in 10.0 mi SW 10.4 mph - N/A   Scattered Clouds
4:40 PM 93.2 °F 100.5 °F 71.6 °F 49% 29.86 in 9.0 mi SW 10.4 mph - N/A Thunderstorm Scattered Clouds
4:56 PM 86.0 °F 87.6 °F 64.9 °F 49% 29.88 in 10.0 mi NW 8.1 mph 21.9 mph N/A Thunderstorm Mostly Cloudy
5:56 PM 79.0 °F - 71.1 °F 77% 29.86 in 10.0 mi SW 5.8 mph - 0.00 in Thunderstorm Mostly Cloudy
6:56 PM 84.0 °F 88.4 °F 70.0 °F 63% 29.85 in 9.0 mi WNW 4.6 mph - N/A Thunderstorm Partly Cloudy
7:46 PM 78.8 °F - 69.8 °F 74% 29.89 in 9.0 mi WSW 12.7 mph - 0.01 in   Partly Cloudy
7:56 PM 79.0 °F - 69.1 °F 72% 29.90 in 10.0 mi West 12.7 mph - 0.01 in   Partly Cloudy
8:56 PM 75.0 °F - 70.0 °F 84% 29.86 in 10.0 mi West 9.2 mph - 0.00 in Rain , Thunderstorm Light Rain
9:05 PM 75.2 °F - 69.8 °F 83% 29.86 in 10.0 mi West 8.1 mph - 0.00 in Rain Light Rain
9:56 PM 77.0 °F - 71.1 °F 82% 29.82 in 9.0 mi NW 5.8 mph - 0.00 in   Partly Cloudy
10:56 PM 77.0 °F - 70.0 °F 79% 29.87 in 9.0 mi Variable 5.8 mph - N/A   Clear
11:56 PM 75.9 °F - 71.1 °F 85% 29.87 in 8.0 mi NW 5.8 mph - N/A   Clear